Location: SE Lincoln, NE
(40.7805°N, 96.6275°W)
Time: 03:47:43
(UTC-05:00)

Milstar 3 - Pass Details

Date: 15 May 2021
Orbit: 1089 x 5155 km, 28.3° (Epoch: 08 May)

Event Time Altitude Azimuth Distance (km) Brightness Sun altitude
Rises 23:14:01 0° 260° (W) 7,256 7.3 -23.0°
Reaches altitude 10° 23:19:56 10° 255° (WSW) 5,563 6.6 -23.6°
Maximum altitude 23:32:43 41° 192° (SSW) 2,363 4.1 -24.8°
Enters shadow 23:34:17 39° 171° (S) 2,298 3.9 -25.0°
